Tracking 35055 objects as of 19-Aug-2026
HD Live streaming from Space Station
objects crossing your sky now

SL-6 PLAT


SL-6 PLAT is no longer on orbit


NORAD ID: 7782
Int'l Code: 1975-036C
Launch date: April 29, 1975
Source: Commonwealth of Independent States (former USSR) (CIS)
Launch site: PLESETSK MISSILE AND SPACE COMPLEX (PKMTR)
Decay date: 1975-06-03
Your satellite tracking list
Your tracking list is empty




NASA's NSSDC Master Catalog

Two Line Element Set (TLE):
1 07782U 75036  C 75153.84665294  .04874489 +43102-0 +90126-3 0  9995
2 07782 062.7936 188.2925 0021548 130.1502 230.1505 16.39008795005500
Source of the keplerian elements: AFSPC